Thermopolis, WY

1:01 AM MDT on October 17, 2017 (GMT -0600)
Thermopolis

Weather History for KTBX - December, 2012

Change the Weather History Date:

Sunday, December 30, 2012

  Actual Average (KWRL) Record (KWRL)
Temperature  
Mean Temperature 16 °F -  
Max Temperature 19 °F 26 °F 50 °F (1980)
Min Temperature 12 °F 0 °F -44 °F (1978)
Degree Days  
Heating Degree Days 48    
Moisture  
Dew Point 0 °F    
Average Humidity 49    
Maximum Humidity 58    
Minimum Humidity 36    
Precipitation  
Precipitation 0.00 in - - ()
Sea Level Pressure  
Sea Level Pressure 29.96 in    
Wind  
Wind Speed 8 mph (NNW)    
Max Wind Speed 14 mph    
Max Gust Speed -    
Visibility 10 miles    
Events      
Averages and records for this station are not official NWS values.
T = Trace of Precipitation, MM = Missing Value Source: NWS Daily Summary

Daily Weather History Graph

Daily Weather History Graph

Search for Another Location

Airport or City:

Trip Planner

Search our weather history database for the weather conditions in past years. The results will help you decide how hot, cold, wet, or windy it might be!

Date:

Astronomy

Dec. 30, 2012 Rise Set
Actual Time 7:45 AM MST 4:46 PM MST
Civil Twilight 7:13 AM MST 5:18 PM MST
Nautical Twilight 6:37 AM MST 5:54 PM MST
Astronomical Twilight 6:02 AM MST 6:29 PM MST
Moon 7:25 PM MST (12/30) 8:52 AM MST (12/30)
Length of Visible Light 10h 05m
Length of Day
9h 00m
Waning Gibbous, 95% of the Moon is Illuminated
Dec 30
Waning Gibbous
Jan 4
Last Quarter
Jan 11
New
Jan 18
First Quarter
Jan 26
Full

Hourly Weather History & Observations

Time (MST) Temp. Windchill Dew Point Humidity Pressure Visibility Wind Dir Wind Speed Gust Speed Precip Events Conditions
6:55 AM 19.4 °F 12.8 °F -4.0 °F 36% 29.94 in 10.0 mi NW 4.6 mph - N/A   Clear
7:15 AM 19.4 °F 10.4 °F -4.0 °F 36% 29.94 in 10.0 mi WNW 6.9 mph - N/A   Clear
7:35 AM 19.4 °F 10.4 °F -4.0 °F 36% 29.94 in 10.0 mi West 6.9 mph - N/A   Clear
7:55 AM 15.8 °F 3.4 °F -0.4 °F 49% 29.94 in 10.0 mi WNW 10.4 mph - N/A   Clear
8:15 AM 15.8 °F 4.2 °F -0.4 °F 49% 29.94 in 10.0 mi WNW 9.2 mph - N/A   Clear
8:35 AM 17.6 °F 7.3 °F -0.4 °F 45% 29.95 in 10.0 mi WNW 8.1 mph - N/A   Clear
8:55 AM 15.8 °F 2.7 °F -0.4 °F 49% 29.95 in 10.0 mi WNW 11.5 mph - N/A   Clear
9:15 AM 15.8 °F 4.2 °F -0.4 °F 49% 29.96 in 10.0 mi WNW 9.2 mph - N/A   Clear
9:55 AM 17.6 °F 6.4 °F -0.4 °F 45% 29.97 in 10.0 mi WNW 9.2 mph - N/A   Clear
10:15 AM 17.6 °F 4.3 °F -0.4 °F 45% 29.97 in 10.0 mi NW 12.7 mph - N/A   Clear
10:55 AM 17.6 °F 4.3 °F -0.4 °F 45% 29.97 in 10.0 mi NW 12.7 mph - N/A   Clear
11:15 AM 15.8 °F 1.4 °F 1.4 °F 53% 29.97 in 10.0 mi WNW 13.8 mph - N/A   Clear
11:35 AM 15.8 °F 1.4 °F 1.4 °F 53% 29.97 in 10.0 mi WNW 13.8 mph - N/A   Clear
11:55 AM 15.8 °F 2.1 °F 3.2 °F 58% 29.96 in 10.0 mi WNW 12.7 mph - N/A   Clear
12:15 PM 15.8 °F 3.4 °F 3.2 °F 58% 29.96 in 10.0 mi NW 10.4 mph - N/A   Clear
12:35 PM 17.6 °F 5.0 °F 3.2 °F 53% 29.96 in 10.0 mi WNW 11.5 mph - N/A   Clear
12:55 PM 17.6 °F 5.7 °F 3.2 °F 53% 29.96 in 10.0 mi WNW 10.4 mph - N/A   Clear
1:15 PM 17.6 °F 7.3 °F 3.2 °F 53% 29.95 in 10.0 mi WNW 8.1 mph - N/A   Clear
1:35 PM 17.6 °F 8.2 °F 3.2 °F 53% 29.95 in 10.0 mi WNW 6.9 mph - N/A   Clear
1:55 PM 17.6 °F 8.2 °F 3.2 °F 53% 29.95 in 10.0 mi WNW 6.9 mph - N/A   Clear
2:15 PM 17.6 °F 8.2 °F 3.2 °F 53% 29.95 in 10.0 mi WNW 6.9 mph - N/A   Clear
2:35 PM 19.4 °F 12.8 °F 1.4 °F 46% 29.95 in 10.0 mi North 4.6 mph - N/A   Clear
2:55 PM 19.4 °F 12.8 °F -0.4 °F 42% 29.95 in 10.0 mi North 4.6 mph - N/A   Clear
3:15 PM 19.4 °F 14.3 °F 1.4 °F 46% 29.95 in 10.0 mi North 3.5 mph - N/A   Clear
3:35 PM 19.4 °F 12.8 °F -0.4 °F 42% 29.95 in 10.0 mi North 4.6 mph - N/A   Clear
4:15 PM 19.4 °F 14.3 °F 1.4 °F 46% 29.96 in 10.0 mi NNE 3.5 mph - N/A   Clear
4:35 PM 19.4 °F 14.3 °F 1.4 °F 46% 29.96 in 10.0 mi NE 3.5 mph - N/A   Clear
4:55 PM 17.6 °F - 3.2 °F 53% 29.96 in 10.0 mi Calm Calm - N/A   Clear
5:15 PM 14.0 °F 2.9 °F 1.4 °F 57% 29.96 in 10.0 mi ESE 8.1 mph - N/A   Clear
5:35 PM 14.0 °F 2.9 °F 1.4 °F 57% 29.96 in 10.0 mi ESE 8.1 mph - N/A   Clear
5:55 PM 14.0 °F 2.0 °F -0.4 °F 53% 29.96 in 10.0 mi ESE 9.2 mph - N/A   Clear
6:15 PM 14.0 °F 1.2 °F -0.4 °F 53% 29.96 in 10.0 mi ESE 10.4 mph - N/A   Clear
6:35 PM 15.8 °F 4.2 °F -0.4 °F 49% 29.96 in 10.0 mi ESE 9.2 mph - N/A   Clear
7:15 PM 15.8 °F 3.4 °F -0.4 °F 49% 29.96 in 10.0 mi ESE 10.4 mph - N/A   Clear
7:35 PM 15.8 °F 5.1 °F -0.4 °F 49% 29.97 in 10.0 mi ESE 8.1 mph - N/A   Clear
7:55 PM 17.6 °F 8.2 °F -2.2 °F 42% 29.97 in 10.0 mi ESE 6.9 mph - N/A   Clear
8:15 PM 17.6 °F 10.7 °F -0.4 °F 45% 29.97 in 10.0 mi East 4.6 mph - N/A   Clear
8:35 PM 17.6 °F 12.3 °F -2.2 °F 42% 29.97 in 10.0 mi SE 3.5 mph - N/A   Clear
8:55 PM 17.6 °F - -0.4 °F 45% 29.97 in 10.0 mi Calm Calm - N/A   Clear
9:15 PM 17.6 °F 12.3 °F -0.4 °F 45% 29.96 in 10.0 mi SE 3.5 mph - N/A   Clear
9:35 PM 17.6 °F 10.7 °F -0.4 °F 45% 29.96 in 10.0 mi SE 4.6 mph - N/A   Clear
10:15 PM 17.6 °F 10.7 °F -0.4 °F 45% 29.95 in 10.0 mi SE 4.6 mph - N/A   Clear
10:35 PM 17.6 °F 9.3 °F -0.4 °F 45% 29.95 in 10.0 mi SE 5.8 mph - N/A   Clear
10:55 PM 14.0 °F 3.9 °F -0.4 °F 53% 29.95 in 10.0 mi SE 6.9 mph - N/A   Clear
11:15 PM 14.0 °F 3.9 °F -0.4 °F 53% 29.96 in 10.0 mi SE 6.9 mph - N/A   Clear
11:35 PM 14.0 °F 3.9 °F -0.4 °F 53% 29.95 in 10.0 mi SE 6.9 mph - N/A   Clear
11:55 PM 12.2 °F -1.0 °F -0.4 °F 57% 29.95 in 10.0 mi SE 10.4 mph - N/A   Clear